User: anonymous   Login
Location: Unspecified
(0.0000°N, 0.0000°E)
Time: 20:39:06
(UTC+00:00)
Language:

IBEX - Orbit

View from above orbital plane
View from above orbital plane
View from above satellite
View from above satellite

Ground track
Ground track

The orbit data is extracted from the following two-line orbital elements,

1 33401U 08051A   16125.30599111 -.00001791  00000-0  00000+0 0  9997
2 33401  39.3280  27.6971 6495403 156.2959   3.2196  0.11622221  3188
Epoch (UTC): 04 May 2016 07:20:37
Eccentricity: 0.6495403
inclination: 39.3280°
perigee height: 55781 km
apogee height: 286194 km
right ascension of ascending node: 27.6971°
argument of perigee: 156.2959°
revolutions per day: 0.11622221
mean anomaly at epoch: 3.2196°
orbit number at epoch: 318

The dashed part of the orbit path shows where the satellite is in the earth's shadow,  

DLR